Theta_e
306 307 307 308 308 308 308 308 308 308 309 309 309 309 309 309 310 310 313 318 317 316 325 327 327 328 330 331 330 332 328 329 329 328 329 329 326 328 328 328 328 327 326 326 327
305 304 305 306 307 308 308 308 308 308 308 308 308 309 309 309 309 310 315 316 318 318 317 325 327 327 329 331 331 330 329 329 329 329 328 328 326 326 327 328 327 328 325 325 326
310 309 307 305 304 305 306 307 308 308 308 308 308 308 308 308 308 312 315 318 318 318 317 319 326 329 330 331 331 330 329 328 328 329 329 329 325 326 325 326 328 326 325 325 324
308 308 308 309 309 307 304 304 305 306 307 307 308 308 308 308 312 319 318 317 319 318 317 319 323 329 330 330 331 329 328 329 328 329 329 326 327 325 325 326 328 327 325 325 324
306 307 308 308 307 307 309 309 305 304 304 305 307 307 308 310 309 315 318 315 316 318 317 317 320 322 325 330 330 329 329 329 329 329 329 328 326 325 324 327 327 326 325 324 325
303 304 306 306 306 307 306 306 309 309 304 303 304 305 305 311 311 311 312 315 316 317 317 317 319 321 323 327 328 329 328 329 330 330 328 327 326 326 326 328 327 325 324 324 324
297 299 302 303 305 307 308 306 306 307 310 306 302 302 302 308 311 313 314 314 316 317 318 317 319 320 322 322 325 326 325 326 328 328 325 327 326 326 327 328 327 326 325 325 324
299 296 302 303 304 306 305 304 306 306 307 309 306 302 306 307 309 310 315 316 317 321 322 323 318 319 320 323 323 323 325 327 326 326 327 326 326 326 327 327 327 327 327 326 325
304 302 299 300 302 303 304 304 301 306 306 308 308 303 308 307 310 311 312 313 316 319 320 323 322 319 320 320 321 323 324 325 327 327 327 326 327 326 327 327 327 328 328 327 326
305 304 304 300 299 302 303 302 301 307 306 308 308 309 310 313 312 312 312 312 314 317 318 317 319 319 318 322 323 323 324 326 327 327 326 326 327 326 328 327 327 327 328 327 326
305 305 303 304 300 302 303 303 312 315 311 313 311 310 315 316 316 316 315 313 316 316 320 320 315 319 320 321 323 323 325 327 327 327 327 329 328 327 327 327 326 327 328 327 327
302 303 303 304 302 300 303 303 311 310 312 313 313 312 313 314 314 318 315 317 315 316 315 316 316 318 321 322 324 324 324 324 325 327 327 328 328 327 327 327 327 327 327 327 326
302 302 304 303 303 308 309 309 310 308 312 313 313 314 315 314 314 315 316 317 316 315 315 315 318 319 322 322 323 325 325 324 325 327 327 327 326 328 328 327 327 327 327 327 326
303 303 305 304 303 310 311 311 311 311 310 309 312 313 316 317 318 315 317 316 317 316 315 315 317 320 322 322 323 324 325 325 326 327 327 327 325 327 327 325 325 326 326 326 325
303 303 304 304 304 302 311 310 310 311 312 311 312 314 314 319 319 318 316 317 317 317 316 316 316 318 320 323 323 324 325 325 327 327 326 325 324 325 326 326 325 322 327 326 326
303 303 304 304 304 306 308 309 310 310 310 312 316 316 316 319 320 320 317 317 316 317 317 317 318 317 318 320 324 325 325 326 326 324 325 326 325 325 326 326 325 323 326 327 327
303 303 304 305 305 304 306 309 312 312 310 313 317 316 317 318 320 321 317 317 317 317 318 318 317 318 319 320 321 325 323 325 325 322 324 326 327 326 325 326 323 325 328 328 328
303 303 304 304 304 304 305 309 311 309 309 310 312 314 317 318 319 320 320 317 316 317 318 319 318 318 318 319 321 323 323 325 327 327 325 326 326 326 326 324 325 328 328 329 328
303 303 304 304 305 305 305 309 308 309 309 311 310 312 315 319 320 320 320 317 317 317 317 318 319 319 319 319 321 322 324 323 324 325 325 326 328 327 324 323 323 329 329 329 328
303 303 304 306 305 305 306 308 307 308 309 309 310 310 311 313 315 319 319 320 318 318 318 319 319 320 320 320 320 322 325 325 321 324 325 327 328 329 324 323 324 330 328 329 328
303 305 304 306 306 304 306 306 307 307 307 308 309 310 311 312 314 317 321 321 320 319 318 319 322 323 320 320 320 322 325 322 320 320 323 325 327 325 324 326 329 330 329 328 328
303 305 306 306 306 303 307 305 307 307 308 308 308 309 310 313 315 316 319 321 321 320 319 319 321 322 325 322 322 324 325 322 323 325 324 326 326 327 328 328 328 331 330 328 327
304 304 305 306 306 305 305 306 307 307 307 308 309 308 309 311 315 316 319 320 320 320 320 320 320 327 323 323 323 326 325 324 322 324 326 328 327 326 327 331 332 331 331 329 327
302 304 305 305 305 306 306 306 305 305 306 307 308 309 309 312 313 315 317 318 316 321 325 322 320 321 328 325 325 327 326 324 324 326 327 328 327 328 327 328 330 330 330 328 327
302 304 305 306 305 305 305 305 305 305 305 306 308 310 310 311 313 315 314 314 315 320 316 322 321 325 323 325 327 327 327 326 325 325 327 326 327 327 325 324 330 330 329 328 327
302 304 304 303 305 305 305 306 306 306 305 306 307 309 310 311 312 313 311 311 313 314 312 318 322 322 327 326 326 327 327 326 326 325 325 326 326 326 326 327 330 330 329 328 328
302 303 303 304 304 305 306 306 307 307 307 307 307 308 309 310 310 311 310 311 311 312 312 318 327 323 324 326 326 328 327 326 326 325 325 324 324 327 327 327 330 329 329 328 328
Wind_Speed
22 23 24 25 24 24 23 24 24 24 24 23 22 22 21 22 22 22 29 25 20 21 14 17 21 21 19 23 23 24 6 13 17 14 17 22 7 16 19 4 8 11 14 15 25
21 23 24 25 26 27 27 26 25 25 25 25 24 22 21 23 26 31 30 25 20 19 27 22 24 22 26 23 28 19 9 22 15 18 17 17 15 20 14 19 20 16 14 17 17
24 24 24 24 25 27 28 29 28 26 25 26 25 22 20 19 24 25 17 17 19 26 25 28 22 22 27 29 32 26 18 18 20 31 32 20 13 20 17 11 15 8 19 20 19
24 24 25 25 24 25 27 28 28 28 27 27 25 23 19 14 6 11 9 4 7 24 26 23 26 28 22 20 32 19 28 30 31 34 31 8 13 14 25 24 16 11 10 19 19
24 24 24 24 25 25 26 28 27 27 26 27 26 23 20 16 29 18 9 13 8 18 35 32 29 31 20 24 23 22 23 32 35 35 26 14 14 19 29 23 17 4 7 12 15
21 21 23 25 26 25 25 25 27 27 25 25 24 22 21 20 37 33 29 21 22 14 22 31 25 34 20 24 22 28 25 28 35 30 18 12 18 27 29 21 21 11 8 11 13
20 21 21 22 24 22 24 24 25 24 24 24 22 21 26 41 22 17 21 26 27 22 21 27 34 21 26 13 30 27 22 23 22 21 13 25 17 17 23 18 16 14 18 22 17
21 20 20 21 22 25 27 26 24 22 21 22 21 19 20 35 34 42 26 25 15 24 18 12 22 30 29 20 23 18 18 19 10 11 27 16 19 14 25 21 23 25 25 20 23
22 22 21 21 21 23 26 28 25 16 19 17 17 16 15 12 28 38 39 34 19 26 22 19 21 25 21 15 13 11 13 14 15 19 22 12 20 18 26 19 22 24 26 25 26
23 23 23 22 23 23 24 27 15 13 15 11 13 6 23 22 23 25 34 40 29 15 24 27 19 11 12 9 18 13 10 13 18 24 18 18 16 9 27 26 26 29 23 27 25
24 24 22 23 22 22 26 16 3 4 17 18 20 26 7 7 8 20 19 29 29 28 12 19 7 18 21 20 13 14 14 19 23 21 22 5 20 10 15 18 14 18 18 18 17
24 24 24 23 21 20 21 13 10 6 14 26 36 37 34 28 16 21 21 26 24 21 14 12 24 19 18 15 16 17 19 24 23 21 10 17 18 9 8 7 17 23 26 21 25
24 23 23 22 21 13 13 16 19 10 9 17 34 42 38 33 35 29 31 33 21 21 22 23 8 19 18 18 18 20 20 21 20 22 18 5 7 4 4 12 23 31 32 19 28
22 18 19 21 13 9 12 9 14 5 5 9 15 21 30 27 16 42 32 37 9 25 22 19 18 18 23 22 22 21 20 23 23 17 8 2 5 4 6 9 9 14 23 26 29
21 19 15 16 16 14 6 11 11 9 5 8 17 18 34 34 16 29 47 36 22 19 23 21 25 25 23 24 25 22 18 21 22 16 5 3 3 4 6 9 17 8 28 30 34
23 19 15 16 15 6 8 11 10 3 10 8 10 17 18 31 21 3 45 41 29 19 23 23 19 21 29 24 26 24 16 18 13 5 2 6 7 6 7 8 5 7 21 35 34
23 17 17 15 16 8 10 6 3 7 10 6 1 19 21 16 24 18 24 26 21 20 24 21 28 26 22 23 23 19 12 7 3 1 6 5 4 9 10 9 7 8 17 31 32
21 17 16 18 13 4 10 3 10 11 21 24 22 19 11 17 23 31 15 25 25 23 10 15 15 30 24 28 23 16 14 6 8 4 7 7 9 17 12 12 20 23 26 29 32
20 16 16 16 11 9 5 8 7 12 17 19 28 18 8 11 10 24 27 29 30 26 19 18 18 14 28 22 21 21 10 12 5 2 2 5 8 5 7 9 9 19 29 29 31
19 15 20 9 10 13 5 9 14 16 17 19 20 15 23 23 17 11 21 27 27 30 17 11 7 22 21 20 23 23 7 6 2 7 6 6 6 4 9 10 7 13 20 28 31
13 6 6 7 13 8 6 9 14 22 24 20 20 22 21 22 19 17 14 15 30 27 30 20 6 10 21 22 25 12 5 4 7 6 5 3 7 8 10 9 15 15 28 32 33
5 3 4 15 3 3 2 6 6 19 28 20 20 18 19 22 16 14 12 13 20 22 31 28 6 12 17 17 22 9 8 8 8 6 5 5 6 6 11 11 10 20 28 31 33
6 8 6 12 3 2 9 16 18 19 18 17 20 19 12 14 8 14 13 22 22 15 29 24 18 3 13 9 17 16 14 8 7 6 9 5 5 5 9 11 23 22 30 31 30
6 3 4 10 10 6 10 11 13 16 14 10 14 20 8 16 16 15 28 14 39 18 23 27 11 20 9 10 16 13 20 16 8 6 6 9 7 4 8 11 14 23 32 34 33
4 4 5 3 4 6 6 9 16 13 16 18 7 14 9 8 19 17 20 29 22 13 19 15 25 12 24 22 10 24 22 20 16 8 12 7 6 14 12 11 19 32 33 34 33
5 5 9 15 14 9 7 8 15 17 13 10 9 17 16 13 9 19 16 12 13 12 19 12 18 20 10 20 18 23 23 20 19 10 8 10 9 9 12 24 19 32 33 31 35
12 12 9 6 7 6 6 9 13 15 13 16 13 9 11 8 7 22 24 25 24 21 17 7 4 15 16 10 11 13 26 24 21 10 13 14 6 7 7 12 24 30 33 35 38
Wind_Direction
280 278 279 283 284 285 284 285 287 288 290 291 292 291 296 294 285 278 267 262 252 236 226 213 223 219 218 240 229 237 250 261 264 270 276 307 348 334 325 320 243 251 201 183 176
284 283 281 281 282 282 281 280 280 282 285 287 286 289 295 296 295 281 277 279 250 225 225 212 215 214 225 233 229 232 233 248 258 269 277 299 322 326 335 317 297 248 156 167 192
296 290 286 279 275 276 278 278 278 277 279 280 281 284 287 297 307 286 279 269 241 215 226 229 228 215 228 238 236 236 240 251 255 260 271 285 315 312 307 292 289 166 174 190 203
297 295 290 287 283 277 275 275 277 276 276 274 275 277 278 278 239 198 175 80 225 214 225 224 226 228 227 235 239 249 245 250 256 259 258 255 301 292 282 274 285 277 170 200 201
295 293 295 294 290 280 272 271 271 271 271 273 273 272 272 251 237 233 256 296 280 221 222 222 228 235 236 231 241 243 248 254 260 265 260 281 272 266 268 275 298 201 186 201 214
306 302 294 289 291 289 280 270 265 265 267 267 267 266 262 244 251 254 246 262 268 239 228 219 225 223 257 235 243 249 254 253 255 264 258 260 263 261 258 262 271 212 210 214 229
311 312 308 294 288 294 290 278 270 264 260 263 265 265 252 245 244 225 231 235 257 248 231 228 224 235 236 264 250 260 264 273 266 266 260 252 254 254 269 242 256 216 230 240 229
332 321 314 312 298 286 290 289 279 269 259 259 259 262 257 260 258 247 209 222 231 234 234 241 225 234 253 263 281 276 260 258 253 265 260 243 258 239 244 241 239 237 248 226 216
332 332 322 314 314 303 291 285 280 279 257 254 255 240 267 268 232 248 230 239 213 219 229 238 235 221 234 238 266 258 260 262 268 246 259 226 247 244 221 236 254 235 245 222 232
328 326 327 320 312 313 309 294 288 245 253 246 236 246 253 234 240 245 226 219 226 228 217 224 231 231 240 217 229 235 257 253 256 259 256 258 261 199 205 219 233 253 244 230 221
326 322 325 324 317 314 318 336 215 217 220 201 201 203 230 192 254 234 225 208 213 227 206 202 212 229 223 231 228 242 248 249 254 257 250 273 271 217 210 213 229 247 269 276 216
316 319 321 321 322 313 307 284 234 348 288 249 245 238 249 260 292 241 201 194 207 214 207 222 223 221 232 232 242 228 249 261 274 278 265 214 245 236 206 208 239 249 258 258 174
313 308 314 314 321 345 336 313 340 311 268 261 235 239 237 244 249 250 209 201 195 210 204 216 223 216 228 230 239 239 232 250 258 275 284 289 320 296 235 234 256 256 252 181 175
318 307 305 307 314 322 293 308 333 284 280 259 213 242 223 222 256 233 230 204 191 208 211 234 219 221 214 228 226 239 223 236 249 258 253 101 276 302 301 289 280 265 151 164 174
315 311 299 294 293 286 265 350 9 213 278 214 211 201 201 189 147 214 215 208 204 199 200 210 208 214 227 216 229 241 224 230 240 249 225 275 291 253 277 283 286 171 161 172 176
314 300 290 282 286 349 311 316 340 218 245 272 151 180 168 202 215 190 193 218 206 212 221 223 231 213 230 232 225 231 232 240 243 196 263 212 182 263 235 240 198 169 174 175 175
318 296 272 263 257 245 299 298 223 227 287 248 335 169 186 187 203 234 187 204 201 199 216 220 223 236 237 230 237 222 218 243 314 344 228 216 278 236 260 230 163 130 144 165 170
317 301 281 263 263 264 291 259 224 245 253 291 334 335 225 172 204 212 205 208 218 206 176 208 226 215 219 228 231 225 198 176 200 168 250 243 238 249 220 162 117 138 143 155 162
317 313 285 269 245 209 222 224 231 246 282 301 332 312 313 243 179 207 217 206 211 209 207 195 228 183 219 223 220 240 202 182 139 212 248 238 276 224 158 127 127 130 138 149 160
314 301 291 252 197 202 210 242 237 248 280 306 307 292 316 318 334 303 208 220 213 211 213 249 228 230 211 219 241 211 173 137 76 194 263 291 306 225 151 172 160 135 138 152 160
319 297 318 204 192 199 236 251 276 276 290 299 313 313 310 312 310 318 265 244 206 204 209 215 219 234 215 208 215 217 173 123 131 151 179 233 268 207 175 161 145 150 152 158 164
320 289 356 174 158 199 246 245 274 298 296 300 290 286 292 353 315 307 259 254 210 196 202 209 203 239 232 213 202 189 159 150 173 227 225 178 272 140 141 152 133 147 156 163 166
293 270 262 201 254 204 266 271 269 272 284 302 297 296 335 306 307 284 309 323 356 309 199 196 224 253 242 273 196 183 179 147 140 138 212 168 249 195 138 126 136 140 156 164 163
305 304 179 191 215 222 276 287 289 280 287 319 316 297 280 284 281 294 314 325 327 330 314 177 196 215 222 209 188 172 182 188 153 178 182 214 237 195 147 143 147 153 160 162 168
286 278 321 290 310 283 275 283 285 289 282 282 319 318 259 287 303 294 318 324 324 339 346 190 203 195 226 249 203 184 181 186 202 172 186 220 229 180 179 175 163 162 160 164 170
282 318 332 303 306 311 299 266 280 292 268 285 264 257 269 257 283 298 314 320 300 327 347 323 207 200 223 230 243 190 187 190 208 186 181 175 228 187 213 189 142 159 163 167 174
308 298 293 279 290 296 278 296 288 290 290 263 276 306 316 298 272 273 271 274 267 284 301 284 299 183 214 235 233 235 189 193 206 204 179 199 180 255 175 192 156 160 166 173 179